Location: Allen Fire Department Station 4
(33.1073°N, 96.6988°W)
Time: 16:22:13
(UTC+00:00)

Aurora 2 Rocket - Pass Details

Date: 06 July 2022
Orbit: 389 x 1718 km, 25.0° (Epoch: 06 August)

Event Time Altitude Azimuth Distance (km) Brightness Sun altitude
Rises 05:40:16 0° 265° (W) 4,585 7.1 -32.9°
Reaches altitude 10° 05:43:58 10° 259° (WSW) 3,410 6.3 -33.1°
Enters shadow 05:46:25 19° 251° (WSW) 2,654 5.6 -33.2°
